CEST,Max TemperatureF,Mean TemperatureF,Min TemperatureF,Max Dew PointF,MeanDew PointF,Min DewpointF,Max Humidity, Mean Humidity, Min Humidity, Max Sea Level PressureIn, Mean Sea Level PressureIn, Min Sea Level PressureIn, Max VisibilityMiles, Mean VisibilityMiles, Min VisibilityMiles, Max Wind SpeedMPH, Mean Wind SpeedMPH, Max Gust SpeedMPH,PrecipitationIn, CloudCover, Events, WindDirDegrees
2012-9-1,81,75,69,64,60,54,73,59,30,30.16,30.10,30.04,19,7,6,13,6,,0.00,2,,67
2012-9-2,78,72,67,59,53,46,60,47,31,30.18,30.11,30.06,19,6,6,20,9,,0.00,1,,50
2012-9-3,83,72,62,59,55,43,77,53,17,30.16,30.08,30.01,19,7,6,13,5,,0.00,1,,245
2012-9-4,83,72,61,61,57,50,77,56,29,30.06,30.03,29.98,12,7,6,12,4,,0.00,1,,136
2012-9-5,82,74,67,66,62,55,73,62,39,30.06,30.04,30.01,19,7,6,13,5,22,0.00,1,,54
2012-9-6,82,75,68,68,65,55,78,66,45,30.15,30.10,30.06,16,7,6,14,7,,0.00,1,,45
2012-9-7,83,76,69,70,65,56,78,65,40,30.18,30.15,30.12,12,7,6,15,6,,0.00,1,,38
2012-9-8,87,76,64,70,62,52,88,62,21,30.15,30.10,30.04,9,9,9,10,4,,0.00,,,225
2012-9-9,84,74,65,68,66,61,94,73,36,30.09,30.04,30.01,9,6,4,12,3,,0.00,1,,176
2012-9-10,81,73,65,68,66,62,94,76,47,30.05,30.02,29.98,12,6,5,9,2,,0.00,3,,98
2012-9-11,82,73,64,68,65,59,94,72,43,30.06,30.03,30.01,12,8,6,9,3,,0.00,1,,75
2012-9-12,86,76,66,70,65,59,94,68,38,30.06,30.00,29.89,12,9,6,10,4,,0.00,1,,206
2012-9-13,80,76,69,70,61,54,78,58,35,30.01,29.95,29.89,19,7,6,22,7,,0.00,2,,74
2012-9-14,82,72,62,64,58,49,73,60,38,30.04,29.98,29.95,19,8,6,10,4,,0.00,1,,178
2012-9-15,84,72,59,68,61,50,88,64,43,30.01,29.96,29.92,19,8,6,14,5,,0.00,1,,208
2012-9-16,84,72,60,70,64,55,94,72,40,29.98,29.94,29.92,12,12,12,10,3,,0.00,,,81
2012-9-17,84,72,59,72,62,48,100,70,29,29.98,29.94,29.92,19,7,2,9,4,,0.00,2,Fog,74
2012-9-18,83,74,66,70,66,59,83,73,50,29.98,29.92,29.86,12,7,6,10,3,15,0.00,1,,76
2012-9-19,83,77,71,70,68,64,88,74,48,30.04,29.96,29.89,16,7,6,20,7,,0.00,2,,52
2012-9-20,80,77,74,70,67,62,83,70,44,30.09,30.05,30.04,12,7,6,16,13,,0.00,2,,70
2012-9-21,81,76,71,70,67,61,83,71,50,30.06,30.00,29.95,12,6,6,17,11,,0.00,3,,56
2012-9-22,84,74,65,72,67,61,94,77,44,29.98,29.95,29.92,9,7,6,9,4,,0.00,1,,207
2012-9-23,84,76,69,73,70,66,94,81,46,29.98,29.93,29.86,9,6,6,10,2,,0.00,3,,194
2012-9-24,86,78,71,72,55,36,89,49,14,30.01,29.93,29.86,19,7,6,23,9,33,0.00,1,,265
2012-9-25,83,75,67,63,48,30,78,40,12,29.89,29.79,29.71,16,14,12,20,8,26,0.00,,,234
2012-9-26,85,72,59,63,49,44,64,45,25,29.86,29.73,29.68,19,7,6,17,7,29,0.00,1,,254
2012-9-27,73,70,66,66,57,45,100,65,28,29.95,29.89,29.86,16,6,2,13,7,,0.31,4,Rain,19
2012-9-28,74,69,62,68,65,59,100,82,52,29.95,29.79,29.65,12,5,0,31,13,43,0.71,6,Rain-Thunderstorm,45
2012-9-29,77,66,56,61,57,50,94,74,32,29.95,29.86,29.80,19,7,6,14,6,24,0.00,1,,220
2012-9-30,76,68,61,61,59,54,94,72,41,30.12,30.03,29.95,19,7,6,14,5,,0.00,3,,233